TimeEDT,TemperatureF,Dew PointF,Humidity,Sea Level PressureIn,VisibilityMPH,Wind Direction,Wind SpeedMPH,Gust SpeedMPH,PrecipitationIn,Events,Conditions,WindDirDegrees,DateUTC
12:15 AM,60.8,51.8,72,30.14,10.0,Calm,Calm,-,N/A,,Clear,0,2013-10-28 04:15:00
12:35 AM,60.8,51.8,72,30.14,10.0,ENE,3.5,-,N/A,,Clear,60,2013-10-28 04:35:00
12:55 AM,60.8,51.8,72,30.14,10.0,Calm,Calm,-,N/A,,Clear,0,2013-10-28 04:55:00
1:15 AM,59.0,51.8,77,30.13,10.0,Calm,Calm,-,N/A,,Clear,0,2013-10-28 05:15:00
1:35 AM,60.8,51.8,72,30.13,10.0,Calm,Calm,-,N/A,,Clear,0,2013-10-28 05:35:00
1:55 AM,59.0,51.8,77,30.13,10.0,Calm,Calm,-,N/A,,Clear,0,2013-10-28 05:55:00
2:15 AM,59.0,51.8,77,30.12,10.0,Calm,Calm,-,N/A,,Clear,0,2013-10-28 06:15:00
2:35 AM,59.0,51.8,77,30.12,10.0,Calm,Calm,-,N/A,,Clear,0,2013-10-28 06:35:00
2:55 AM,59.0,51.8,77,30.12,10.0,Calm,Calm,-,N/A,,Clear,0,2013-10-28 06:55:00
3:15 AM,57.2,51.8,82,30.12,10.0,Calm,Calm,-,N/A,,Clear,0,2013-10-28 07:15:00
3:35 AM,57.2,51.8,82,30.12,10.0,Calm,Calm,-,N/A,,Clear,0,2013-10-28 07:35:00
3:55 AM,57.2,53.6,88,30.12,10.0,Calm,Calm,-,N/A,,Clear,0,2013-10-28 07:55:00
4:15 AM,55.4,53.6,94,30.12,10.0,North,5.8,-,N/A,,Clear,360,2013-10-28 08:15:00
4:35 AM,55.4,53.6,94,30.12,10.0,NNE,4.6,-,N/A,,Clear,20,2013-10-28 08:35:00
4:55 AM,57.2,53.6,88,30.12,10.0,Calm,Calm,-,N/A,,Clear,0,2013-10-28 08:55:00
5:15 AM,55.4,51.8,88,30.13,10.0,North,4.6,-,N/A,,Clear,10,2013-10-28 09:15:00
5:35 AM,55.4,53.6,94,30.13,10.0,NNE,3.5,-,N/A,,Clear,20,2013-10-28 09:35:00
5:55 AM,55.4,53.6,94,30.13,10.0,NNE,4.6,-,N/A,,Clear,20,2013-10-28 09:55:00
5:56 AM,57.2,53.6,88,30.13,12.0,NNE,4.6,-,N/A,,Clear,20,2013-10-28 09:56:00
6:15 AM,55.4,53.6,94,30.13,10.0,NNE,3.5,-,N/A,,Clear,30,2013-10-28 10:15:00
6:35 AM,55.4,53.6,94,30.14,10.0,Calm,Calm,-,N/A,,Clear,0,2013-10-28 10:35:00
6:58 AM,57.2,53.6,88,30.15,12.0,Calm,Calm,-,N/A,,Clear,0,2013-10-28 10:58:00
7:50 AM,57.2,53.6,88,30.16,12.0,NNE,3.5,-,N/A,,Clear,20,2013-10-28 11:50:00
8:50 AM,62.6,57.2,82,30.17,12.0,Calm,Calm,-,N/A,,Clear,0,2013-10-28 12:50:00
9:50 AM,69.8,57.2,64,30.19,12.0,NE,5.8,-,N/A,,Clear,40,2013-10-28 13:50:00
10:50 AM,73.4,57.2,57,30.21,12.0,NNE,6.9,-,N/A,,Clear,20,2013-10-28 14:50:00
12:50 PM,78.8,55.4,44,30.19,15.0,NE,4.6,-,N/A,,Clear,40,2013-10-28 16:50:00
1:50 PM,80.6,57.2,45,30.16,15.0,NNE,3.5,-,N/A,,Partly Cloudy,20,2013-10-28 17:50:00
2:50 PM,82.4,55.4,39,30.14,15.0,Calm,Calm,-,N/A,,Partly Cloudy,0,2013-10-28 18:50:00
3:50 PM,82.4,55.4,39,30.13,15.0,NNE,5.8,-,N/A,,Partly Cloudy,20,2013-10-28 19:50:00
4:50 PM,82.4,53.6,37,30.13,15.0,ENE,6.9,-,N/A,,Partly Cloudy,60,2013-10-28 20:50:00
5:50 PM,80.6,53.6,39,30.13,15.0,NE,4.6,-,N/A,,Clear,50,2013-10-28 21:50:00
6:50 PM,75.2,57.2,53,30.14,15.0,NNE,4.6,-,N/A,,Clear,20,2013-10-28 22:50:00
7:50 PM,73.4,57.2,57,30.16,15.0,NNE,3.5,-,N/A,,Clear,20,2013-10-28 23:50:00
8:50 PM,69.8,59.0,68,30.18,10.0,ENE,6.9,-,N/A,,Clear,60,2013-10-29 00:50:00
9:50 PM,69.8,59.0,68,30.19,10.0,ENE,5.8,-,N/A,,Clear,70,2013-10-29 01:50:00
10:55 PM,68.0,59.0,73,30.20,10.0,ENE,5.8,-,N/A,,Clear,60,2013-10-29 02:55:00
11:15 PM,68.0,60.8,78,30.21,10.0,ENE,5.8,-,N/A,,Clear,60,2013-10-29 03:15:00
11:35 PM,68.0,60.8,78,30.21,10.0,NE,5.8,-,N/A,,Clear,50,2013-10-29 03:35:00
11:55 PM,66.2,60.8,83,30.21,10.0,NE,4.6,-,N/A,,Clear,40,2013-10-29 03:55:00